GW2386 Weather Reports


time (UTC)temp
C
wind
direction
speed
KPH
gust
KPH
rain 1hr
cm
rain 24hr
cm
rain mn
cm
humidity
%
barometer
mb
20260507114557 10 60 4.8 12.9 0.00 0.28 0.00 84 1019.3
20260507113059 11 23 6.4 14.5 0.00 0.28 0.00 82 1019.1
20260507111554 11 61 3.2 12.9 0.00 0.28 0.00 82 1018.9
20260507110054 12 19 6.4 14.5 0.00 0.28 0.00 81 1018.6
20260507104556 12 42 6.4 14.5 0.00 0.28 0.00 81 1018.6
20260507103054 12 34 6.4 11.3 0.00 0.28 0.00 81 1018.8
20260507101556 12 60 6.4 11.3 0.00 0.28 0.00 80 1019.1
20260507100054 12 62 3.2 9.7 0.00 0.28 0.00 80 1018.9
20260507094554 12 53 6.4 11.3 0.00 0.28 0.00 80 1018.7
20260507093056 12 56 6.4 12.9 0.00 0.28 0.00 80 1018.6
20260507091555 12 57 6.4 12.9 0.00 0.28 0.00 80 1018.5
20260507090057 12 46 6.4 12.9 0.00 0.28 0.00 80 1018.4
20260507084556 12 56 4.8 9.7 0.00 0.28 0.00 80 1018.3
20260507083101 12 61 4.8 11.3 0.00 0.28 0.00 80 1018.3
20260507081556 12 57 3.2 8.0 0.00 0.28 0.00 79 1018.1
20260507080113 12 51 1.6 8.0 0.00 0.28 0.00 80 1017.8
20260507074555 12 47 3.2 8.0 0.00 0.28 0.00 80 1017.7
20260507073057 12 60 3.2 6.4 0.00 0.28 0.00 80 1017.5
20260507071609 12 61 1.6 6.4 0.00 0.28 0.00 79 1017.6
20260507070057 12 61 3.2 6.4 0.00 0.28 0.00 79 1017.5
20260507064600 13 48 4.8 8.0 0.00 0.28 0.00 79 1017.0
20260507063057 13 23 6.4 12.9 0.00 0.28 0.00 79 1016.7
20260507061559 13 59 3.2 6.4 0.00 0.28 0.00 78 1016.8
20260507060058 13 66 3.2 6.4 0.00 0.28 0.00 77 1016.6
20260507054556 13 68 3.2 6.4 0.00 0.28 0.00 77 1016.6
20260507053121 13 74 3.2 8.0 0.00 0.28 0.00 77 1016.7
20260507051601 13 69 1.6 4.8 0.00 0.28 0.00 76 1016.6
20260507050055 14 70 0.0 4.8 0.00 0.28 0.00 75 1016.3
20260507044557 14 71 0.0 4.8 0.00 0.28 0.28 74 1016.3
20260507043101 15 73 3.2 8.0 0.00 0.28 0.28 73 1016.0
20260507041558 15 61 1.6 8.0 0.00 0.28 0.28 73 1015.9
20260507040054 15 67 1.6 4.8 0.00 0.28 0.28 73 1015.8
20260507034556 16 0 1.6 4.8 0.00 0.28 0.28 71 1015.3
20260507033101 16 67 1.6 4.8 0.00 0.28 0.28 70 1014.9
20260507031558 16 67 0.0 3.2 0.00 0.28 0.28 68 1014.9
20260507030057 16 0 0.0 3.2 0.00 0.28 0.28 67 1014.6
20260507024605 17 68 0.0 4.8 0.00 0.28 0.28 65 1014.3
20260507023100 17 67 1.6 3.2 0.00 0.28 0.28 65 1014.2
20260507021554 18 72 1.6 9.7 0.00 0.28 0.28 64 1014.2
20260507020057 18 53 1.6 6.4 0.00 0.28 0.28 66 1013.9
20260507014612 18 72 1.6 6.4 0.00 0.28 0.28 67 1013.7
20260507013056 19 121 0.0 4.8 0.00 0.28 0.28 65 1013.5
20260507011558 20 121 1.6 4.8 0.00 0.28 0.28 62 1013.3
20260507010103 20 113 3.2 11.3 0.00 0.28 0.28 61 1013.2
20260507004611 21 80 1.6 6.4 0.00 0.28 0.28 59 1013.1
20260507003059 21 88 1.6 8.0 0.00 0.28 0.28 60 1012.8
20260507001556 21 92 0.0 12.9 0.00 0.28 0.28 60 1012.9
20260507000056 22 133 1.6 9.7 0.00 0.28 0.28 59 1012.9
20260506234555 22 121 1.6 9.7 0.00 0.28 0.28 58 1012.8
20260506233058 22 120 1.6 9.7 0.00 0.28 0.28 59 1012.8
20260506231553 22 104 3.2 11.3 0.00 0.28 0.28 58 1012.7
20260506230056 22 138 1.6 8.0 0.00 0.28 0.28 56 1012.7
20260506224556 23 86 1.6 11.3 0.00 0.28 0.28 55 1012.6
20260506223058 23 154 4.8 14.5 0.00 0.28 0.28 55 1012.4
20260506221557 23 128 3.2 9.7 0.00 0.28 0.28 55 1012.4
20260506220054 23 138 3.2 11.3 0.00 0.28 0.28 55 1012.4
20260506214603 23 146 3.2 11.3 0.00 0.28 0.28 53 1012.5
20260506213055 23 178 3.2 11.3 0.00 0.28 0.28 53 1012.7
20260506211600 23 115 3.2 11.3 0.00 0.28 0.28 55 1012.8
20260506210058 22 140 3.2 11.3 0.00 0.28 0.28 56 1012.9
20260506204554 22 131 1.6 12.9 0.00 0.28 0.28 56 1012.9
20260506203053 22 140 1.6 6.4 0.00 0.28 0.28 55 1013.1
20260506201556 22 137 3.2 16.1 0.00 0.28 0.28 54 1013.5
20260506200105 22 24 1.6 11.3 0.00 0.28 0.28 53 1013.7
20260506194605 21 138 1.6 6.4 0.00 0.28 0.28 57 1014.0
20260506193055 20 9 1.6 12.9 0.00 0.28 0.28 57 1014.2
20260506191606 20 38 1.6 8.0 0.00 0.28 0.28 61 1014.3
20260506190057 18 57 0.0 9.7 0.00 0.28 0.28 63 1014.3
20260506184557 18 26 3.2 9.7 0.00 0.28 0.28 63 1014.5
20260506183106 18 76 3.2 14.5 0.00 0.28 0.28 63 1014.9
20260506181601 18 18 3.2 14.5 0.00 0.28 0.28 64 1014.8
20260506180114 18 22 3.2 16.1 0.00 0.28 0.28 66 1014.9
20260506174554 18 348 3.2 9.7 0.00 0.28 0.28 64 1015.0
20260506173129 18 22 4.8 14.5 0.00 0.28 0.28 65 1014.9
20260506171603 18 0 1.6 14.5 0.00 0.28 0.28 67 1015.1
20260506170057 17 48 4.8 14.5 0.00 0.28 0.28 70 1015.0
20260506164556 17 352 4.8 14.5 0.00 0.28 0.28 68 1015.0
20260506163100 16 5 3.2 14.5 0.00 0.28 0.28 73 1014.8
20260506161557 15 33 3.2 16.1 0.00 0.28 0.28 74 1014.9
20260506160100 15 360 11.3 20.9 0.00 0.28 0.28 75 1014.7
20260506154558 15 34 4.8 20.9 0.00 0.28 0.28 77 1014.6
20260506153057 15 24 3.2 14.5 0.00 0.28 0.28 77 1014.4
20260506151554 13 338 9.7 22.5 0.00 0.28 0.28 81 1014.0
20260506150059 12 360 4.8 19.3 0.00 0.28 0.28 84 1013.9
20260506144606 12 38 6.4 17.7 0.00 0.28 0.28 85 1013.8
20260506143056 12 9 3.2 12.9 0.00 0.28 0.28 87 1014.3
20260506141556 12 35 9.7 19.3 0.00 0.28 0.28 89 1013.8
20260506140055 11 317 3.2 8.0 0.00 0.28 0.28 91 1013.2
20260506134605 11 38 3.2 12.9 0.00 0.28 0.28 91 1013.6
20260506133101 11 28 4.8 9.7 0.00 0.28 0.28 91 1013.7
20260506131556 11 55 3.2 9.7 0.05 0.28 0.28 91 1013.6
20260506130054 11 64 1.6 8.0 0.05 0.28 0.28 90 1012.3
20260506124558 11 45 3.2 9.7 0.08 0.28 0.28 90 1012.6
20260506123054 11 19 3.2 9.7 0.10 0.28 0.28 90 1013.0
20260506121557 11 53 3.2 9.7 0.10 0.23 0.23 89 1012.5
20260506120101 12 111 1.6 9.7 0.23 0.23 0.23 88 1011.1